owner,sensor,date,latitude,longitude,vertical_datum,wind_speed,wind_to_direction,wind_speed_of_gust,qcFlag 
TABS,ioos:station:wmo:42044:1,2016-07-01T00:00:00Z,26.1914,-97.0507,0.0,4.708003823,143.2034181,5.92,'11111222,11111222,11111222' 
TABS,ioos:station:wmo:42044:1,2016-07-01T00:30:00Z,26.1914,-97.0507,0.0,4.971005934,134.7558123,6.14,'11111222,11111222,11111222' 
TABS,ioos:station:wmo:42044:1,2016-07-01T01:00:00Z,26.1914,-97.0507,0.0,5.424923963,140.2353005,6.81,'11111222,11111222,11111222' 
TABS,ioos:station:wmo:42044:1,2016-07-01T01:30:00Z,26.1914,-97.0507,0.0,5.952881655,138.8143816,7.47,'11111222,11111222,11111222' 
TABS,ioos:station:wmo:42044:1,2016-07-01T02:00:00Z,26.1914,-97.0507,0.0,6.061188002,144.264818,6.95,'11111222,11111222,11111222' 
TABS,ioos:station:wmo:42044:1,2016-07-01T02:30:00Z,26.1914,-97.0507,0.0,6.016552169,145.359344,7.43,'11111222,11111222,11111222' 
TABS,ioos:station:wmo:42044:1,2016-07-01T03:00:00Z,26.1914,-97.0507,0.0,5.581979935,150.955644,6.7,'11111222,11111222,11111222' 
TABS,ioos:station:wmo:42044:1,2016-07-01T03:30:00Z,26.1914,-97.0507,0.0,5.866123081,155.3138101,6.99,'11111222,11111222,11111222' 
TABS,ioos:station:wmo:42044:1,2016-07-01T04:00:00Z,26.1914,-97.0507,0.0,5.729729488,154.4638383,7.09,'11111222,11111222,11111222' 
TABS,ioos:station:wmo:42044:1,2016-07-01T04:30:00Z,26.1914,-97.0507,0.0,5.685991558,158.2175638,6.53,'11111222,11111222,11111222' 
TABS,ioos:station:wmo:42044:1,2016-07-01T05:00:00Z,26.1914,-97.0507,0.0,5.553611438,164.4374785,6.6,'11111222,11111222,11111222' 
TABS,ioos:station:wmo:42044:1,2016-07-01T05:30:00Z,26.1914,-97.0507,0.0,5.270379493,167.7308467,6.88,'11111222,11111222,11111222' 
TABS,ioos:station:wmo:42044:1,2016-07-01T06:00:00Z,26.1914,-97.0507,0.0,5.761015535,169.8021335,7.0,'11111222,11111222,11111222' 
TABS,ioos:station:wmo:42044:1,2016-07-01T06:30:00Z,26.1914,-97.0507,0.0,6.473731536,174.1487256,7.82,'11111222,11111222,11111222' 
TABS,ioos:station:wmo:42044:1,2016-07-01T07:00:00Z,26.1914,-97.0507,0.0,6.292034647,181.4573371,7.46,'11111222,11111222,11111222' 
TABS,ioos:station:wmo:42044:1,2016-07-01T07:30:00Z,26.1914,-97.0507,0.0,6.027578287,175.6233867,7.29,'11111222,11111222,11111222' 
TABS,ioos:station:wmo:42044:1,2016-07-01T08:00:00Z,26.1914,-97.0507,0.0,5.887147017,182.8237282,7.75,'11111222,11111222,11111222' 
TABS,ioos:station:wmo:42044:1,2016-07-01T08:30:00Z,26.1914,-97.0507,0.0,5.690140596,180.4029852,6.73,'11111222,11111222,11111222' 
TABS,ioos:station:wmo:42044:1,2016-07-01T09:00:00Z,26.1914,-97.0507,0.0,6.001666435,190.5611965,7.28,'11111222,11111222,11111222' 
TABS,ioos:station:wmo:42044:1,2016-07-01T09:30:00Z,26.1914,-97.0507,0.0,6.242539547,184.8705509,7.63,'11111222,11111222,11111222' 
TABS,ioos:station:wmo:42044:1,2016-07-01T10:00:00Z,26.1914,-97.0507,0.0,6.713516217,185.7277743,8.17,'11111222,11111222,11111222' 
TABS,ioos:station:wmo:42044:1,2016-07-01T10:30:00Z,26.1914,-97.0507,0.0,6.14662509,186.2580365,7.39,'11111222,11111222,11111222' 
TABS,ioos:station:wmo:42044:1,2016-07-01T11:00:00Z,26.1914,-97.0507,0.0,6.354163989,182.074579,7.83,'11111222,11111222,11111222' 
TABS,ioos:station:wmo:42044:1,2016-07-01T11:30:00Z,26.1914,-97.0507,0.0,6.500038461,184.5003136,7.93,'11111222,11111222,11111222' 
TABS,ioos:station:wmo:42044:1,2016-07-01T12:00:00Z,26.1914,-97.0507,0.0,6.323962365,184.9895614,7.62,'11111222,11111222,11111222' 
TABS,ioos:station:wmo:42044:1,2016-07-01T12:30:00Z,26.1914,-97.0507,0.0,6.240064102,184.5960874,7.46,'11111222,11111222,11111222' 
TABS,ioos:station:wmo:42044:1,2016-07-01T13:00:00Z,26.1914,-97.0507,0.0,6.146844719,182.704347,7.73,'11111222,11111222,11111222' 
TABS,ioos:station:wmo:42044:1,2016-07-01T13:30:00Z,26.1914,-97.0507,0.0,5.380232337,180.5326825,6.5,'11111222,11111222,11111222' 
TABS,ioos:station:wmo:42044:1,2016-07-01T14:00:00Z,26.1914,-97.0507,0.0,5.710429056,180.7025737,6.88,'11111222,11111222,11111222' 
TABS,ioos:station:wmo:42044:1,2016-07-01T14:30:00Z,26.1914,-97.0507,0.0,5.353737013,182.1411068,6.62,'11111222,11111222,11111222' 
TABS,ioos:station:wmo:42044:1,2016-07-01T15:00:00Z,26.1914,-97.0507,0.0,5.460586049,180.839647,6.31,'11111222,11111222,11111222' 
TABS,ioos:station:wmo:42044:1,2016-07-01T15:30:00Z,26.1914,-97.0507,0.0,4.916299421,175.333363,5.85,'11111222,11111222,11111222' 
TABS,ioos:station:wmo:42044:1,2016-07-01T16:00:00Z,26.1914,-97.0507,0.0,5.465619818,167.2099138,6.82,'11111222,11111222,11111222' 
TABS,ioos:station:wmo:42044:1,2016-07-01T16:30:00Z,26.1914,-97.0507,0.0,5.575204032,161.9227885,6.5,'11111222,11111222,11111222' 
TABS,ioos:station:wmo:42044:1,2016-07-01T17:00:00Z,26.1914,-97.0507,0.0,5.738379562,163.0810431,6.88,'11111222,11111222,11111222' 
TABS,ioos:station:wmo:42044:1,2016-07-01T17:30:00Z,26.1914,-97.0507,0.0,5.127114198,160.3990523,6.39,'11111222,11111222,11111222' 
TABS,ioos:station:wmo:42044:1,2016-07-01T18:00:00Z,26.1914,-97.0507,0.0,5.510943658,156.9245381,6.39,'11111222,11111222,11111222' 
TABS,ioos:station:wmo:42044:1,2016-07-01T18:30:00Z,26.1914,-97.0507,0.0,5.337724234,157.1822301,6.44,'11111222,11111222,11111222' 
TABS,ioos:station:wmo:42044:1,2016-07-01T19:00:00Z,26.1914,-97.0507,0.0,4.917814555,151.4549052,5.89,'11111222,11111222,11111222' 
TABS,ioos:station:wmo:42044:1,2016-07-01T19:30:00Z,26.1914,-97.0507,0.0,5.196085065,140.8583044,6.35,'11111222,11111222,11111222' 
TABS,ioos:station:wmo:42044:1,2016-07-01T20:00:00Z,26.1914,-97.0507,0.0,5.4207933,141.2909718,6.52,'11111222,11111222,11111222' 
TABS,ioos:station:wmo:42044:1,2016-07-01T20:30:00Z,26.1914,-97.0507,0.0,5.763167532,141.9770847,6.73,'11111222,11111222,11111222' 
TABS,ioos:station:wmo:42044:1,2016-07-01T21:00:00Z,26.1914,-97.0507,0.0,6.317602393,147.8699286,7.54,'11111222,11111222,11111222' 
TABS,ioos:station:wmo:42044:1,2016-07-01T21:30:00Z,26.1914,-97.0507,0.0,6.851583759,151.3030567,8.39,'11111222,11111222,11111222' 
TABS,ioos:station:wmo:42044:1,2016-07-01T22:00:00Z,26.1914,-97.0507,0.0,6.99517691,152.5926991,8.58,'11111222,11111222,11111222' 
TABS,ioos:station:wmo:42044:1,2016-07-01T22:30:00Z,26.1914,-97.0507,0.0,6.954315207,153.0667657,8.04,'11111222,11111222,11111222' 
TABS,ioos:station:wmo:42044:1,2016-07-01T23:00:00Z,26.1914,-97.0507,0.0,6.767924349,151.0114557,8.35,'11111222,11111222,11111222' 
TABS,ioos:station:wmo:42044:1,2016-07-01T23:30:00Z,26.1914,-97.0507,0.0,6.74004451,152.7128859,8.03,'11111222,11111222,11111222' 
TABS,ioos:station:wmo:42044:1,2016-07-02T00:00:00Z,26.1914,-97.0507,0.0,6.717804701,154.2362402,8.11,'11111222,11111222,11111222' 
TABS,ioos:station:wmo:42044:1,2016-07-02T00:30:00Z,26.1914,-97.0507,0.0,6.42953342,148.8072838,7.89,'11111222,11111222,11111222' 
TABS,ioos:station:wmo:42044:1,2016-07-02T01:00:00Z,26.1914,-97.0507,0.0,6.118365795,146.4660572,7.68,'11111222,11111222,11111222' 
TABS,ioos:station:wmo:42044:1,2016-07-02T01:30:00Z,26.1914,-97.0507,0.0,6.250671964,151.6312305,7.65,'11111222,11111222,11111222' 
TABS,ioos:station:wmo:42044:1,2016-07-02T02:00:00Z,26.1914,-97.0507,0.0,6.184658438,149.7038331,7.33,'11111222,11111222,11111222' 
TABS,ioos:station:wmo:42044:1,2016-07-02T02:30:00Z,26.1914,-97.0507,0.0,6.188190366,150.5769584,7.41,'11111222,11111222,11111222' 
TABS,ioos:station:wmo:42044:1,2016-07-02T03:00:00Z,26.1914,-97.0507,0.0,6.538814877,152.6906551,7.86,'11111222,11111222,11111222' 
TABS,ioos:station:wmo:42044:1,2016-07-02T03:30:00Z,26.1914,-97.0507,0.0,6.536818798,150.6902719,8.0,'11111222,11111222,11111222' 
TABS,ioos:station:wmo:42044:1,2016-07-02T04:00:00Z,26.1914,-97.0507,0.0,6.865056446,153.9950959,8.47,'11111222,11111222,11111222' 
TABS,ioos:station:wmo:42044:1,2016-07-02T04:30:00Z,26.1914,-97.0507,0.0,7.367781213,159.2530768,9.05,'11111222,11111222,11111222' 
TABS,ioos:station:wmo:42044:1,2016-07-02T05:00:00Z,26.1914,-97.0507,0.0,7.460301602,160.9095545,9.23,'11111222,11111222,11111222' 
TABS,ioos:station:wmo:42044:1,2016-07-02T05:30:00Z,26.1914,-97.0507,0.0,6.702245892,162.7278223,8.12,'11111222,11111222,11111222' 
TABS,ioos:station:wmo:42044:1,2016-07-02T06:00:00Z,26.1914,-97.0507,0.0,7.373140444,166.1901657,9.01,'11111222,11111222,11111222' 
TABS,ioos:station:wmo:42044:1,2016-07-02T06:30:00Z,26.1914,-97.0507,0.0,6.944127015,165.4036691,8.18,'11111222,11111222,11111222' 
TABS,ioos:station:wmo:42044:1,2016-07-02T07:00:00Z,26.1914,-97.0507,0.0,7.197694075,164.0329833,8.86,'11111222,11111222,11111222' 
TABS,ioos:station:wmo:42044:1,2016-07-02T07:30:00Z,26.1914,-97.0507,0.0,6.774658663,164.2407251,8.03,'11111222,11111222,11111222' 
TABS,ioos:station:wmo:42044:1,2016-07-02T08:00:00Z,26.1914,-97.0507,0.0,6.84643703,168.5425933,7.98,'11111222,11111222,11111222' 
TABS,ioos:station:wmo:42044:1,2016-07-02T08:30:00Z,26.1914,-97.0507,0.0,6.556370947,170.1643733,7.83,'11111222,11111222,11111222' 
TABS,ioos:station:wmo:42044:1,2016-07-02T09:00:00Z,26.1914,-97.0507,0.0,6.174504029,173.1169146,7.4,'11111222,11111222,11111222' 
TABS,ioos:station:wmo:42044:1,2016-07-02T09:30:00Z,26.1914,-97.0507,0.0,5.941725339,169.919636,7.2,'11111222,11111222,11111222' 
TABS,ioos:station:wmo:42044:1,2016-07-02T10:00:00Z,26.1914,-97.0507,0.0,5.675253298,171.9986245,6.99,'11111222,11111222,11111222' 
TABS,ioos:station:wmo:42044:1,2016-07-02T10:30:00Z,26.1914,-97.0507,0.0,5.226557184,168.9697932,6.27,'11111222,11111222,11111222' 
TABS,ioos:station:wmo:42044:1,2016-07-02T11:00:00Z,26.1914,-97.0507,0.0,5.122850769,171.0159759,6.02,'11111222,11111222,11111222' 
TABS,ioos:station:wmo:42044:1,2016-07-02T11:30:00Z,26.1914,-97.0507,0.0,4.830165629,170.9474366,5.65,'11111222,11111222,11111222' 
TABS,ioos:station:wmo:42044:1,2016-07-02T12:00:00Z,26.1914,-97.0507,0.0,4.646912954,164.1395335,5.82,'11111222,11111222,11111222' 
TABS,ioos:station:wmo:42044:1,2016-07-02T12:30:00Z,26.1914,-97.0507,0.0,3.64,157.3803984,4.15,'11111222,11111222,11111222' 
TABS,ioos:station:wmo:42044:1,2016-07-02T13:00:00Z,26.1914,-97.0507,0.0,3.766165158,157.5208286,4.57,'11111222,11111222,11111222' 
TABS,ioos:station:wmo:42044:1,2016-07-02T13:30:00Z,26.1914,-97.0507,0.0,4.586556442,156.6212419,5.47,'11111222,11111222,11111222' 
TABS,ioos:station:wmo:42044:1,2016-07-02T14:00:00Z,26.1914,-97.0507,0.0,5.050089108,152.2681553,5.81,'11111222,11111222,11111222' 
TABS,ioos:station:wmo:42044:1,2016-07-02T14:30:00Z,26.1914,-97.0507,0.0,6.158222146,155.6410127,7.18,'11111222,11111222,11111222' 
TABS,ioos:station:wmo:42044:1,2016-07-02T15:00:00Z,26.1914,-97.0507,0.0,5.512349771,157.156526,6.71,'11111222,11111222,11111222' 
TABS,ioos:station:wmo:42044:1,2016-07-02T15:30:00Z,26.1914,-97.0507,0.0,5.581872446,154.3074435,6.37,'11111222,11111222,11111222' 
TABS,ioos:station:wmo:42044:1,2016-07-02T16:00:00Z,26.1914,-97.0507,0.0,6.086682183,153.7720031,7.02,'11111222,11111222,11111222' 
TABS,ioos:station:wmo:42044:1,2016-07-02T16:30:00Z,26.1914,-97.0507,0.0,5.616983176,155.7167098,6.6,'11111222,11111222,11111222' 
TABS,ioos:station:wmo:42044:1,2016-07-02T17:00:00Z,26.1914,-97.0507,0.0,5.83177503,153.0837188,6.81,'11111222,11111222,11111222' 
TABS,ioos:station:wmo:42044:1,2016-07-02T17:30:00Z,26.1914,-97.0507,0.0,5.84455302,155.5400864,6.87,'11111222,11111222,11111222' 
TABS,ioos:station:wmo:42044:1,2016-07-02T18:00:00Z,26.1914,-97.0507,0.0,6.162077572,150.4399251,7.31,'11111222,11111222,11111222' 
TABS,ioos:station:wmo:42044:1,2016-07-02T18:30:00Z,26.1914,-97.0507,0.0,5.803628176,150.4758126,6.75,'11111222,11111222,11111222' 
TABS,ioos:station:wmo:42044:1,2016-07-02T19:00:00Z,26.1914,-97.0507,0.0,6.092158895,154.528838,7.16,'11111222,11111222,11111222' 
TABS,ioos:station:wmo:42044:1,2016-07-02T19:30:00Z,26.1914,-97.0507,0.0,5.907935342,152.9147605,7.11,'11111222,11111222,11111222' 
TABS,ioos:station:wmo:42044:1,2016-07-02T20:00:00Z,26.1914,-97.0507,0.0,6.417670917,153.8344877,7.83,'11111222,11111222,11111222' 
TABS,ioos:station:wmo:42044:1,2016-07-02T20:30:00Z,26.1914,-97.0507,0.0,5.918057114,154.6909339,7.32,'11111222,11111222,11111222' 
TABS,ioos:station:wmo:42044:1,2016-07-02T21:00:00Z,26.1914,-97.0507,0.0,6.410943768,154.9941738,7.9,'11111222,11111222,11111222' 
TABS,ioos:station:wmo:42044:1,2016-07-02T21:30:00Z,26.1914,-97.0507,0.0,6.225921619,154.2995298,7.72,'11111222,11111222,11111222' 
TABS,ioos:station:wmo:42044:1,2016-07-02T22:00:00Z,26.1914,-97.0507,0.0,6.43242567,152.2002493,7.42,'11111222,11111222,11111222' 
TABS,ioos:station:wmo:42044:1,2016-07-02T22:30:00Z,26.1914,-97.0507,0.0,6.531653696,146.5535139,7.83,'11111222,11111222,11111222' 
TABS,ioos:station:wmo:42044:1,2016-07-02T23:00:00Z,26.1914,-97.0507,0.0,6.868020093,150.7106914,8.54,'11111222,11111222,11111222' 
TABS,ioos:station:wmo:42044:1,2016-07-02T23:30:00Z,26.1914,-97.0507,0.0,6.581527178,146.2136425,7.8,'11111222,11111222,11111222' 
TABS,ioos:station:wmo:42044:1,2016-07-03T00:00:00Z,26.1914,-97.0507,0.0,7.506110844,144.489236,8.89,'11111222,11111222,11111222' 
TABS,ioos:station:wmo:42044:1,2016-07-03T00:30:00Z,26.1914,-97.0507,0.0,7.390027064,142.9753368,9.25,'11111222,11111222,11111222' 
TABS,ioos:station:wmo:42044:1,2016-07-03T01:00:00Z,26.1914,-97.0507,0.0,7.458612471,145.5432005,9.29,'11111222,11111222,11111222' 
TABS,ioos:station:wmo:42044:1,2016-07-03T01:30:00Z,26.1914,-97.0507,0.0,7.849292962,147.9097905,9.69,'11111222,11111222,11111222' 
TABS,ioos:station:wmo:42044:1,2016-07-03T02:00:00Z,26.1914,-97.0507,0.0,7.896986767,148.0410462,9.76,'11111222,11111222,11111222' 
TABS,ioos:station:wmo:42044:1,2016-07-03T02:30:00Z,26.1914,-97.0507,0.0,7.580237463,151.4742711,9.53,'11111222,11111222,11111222' 
TABS,ioos:station:wmo:42044:1,2016-07-03T03:00:00Z,26.1914,-97.0507,0.0,7.84694208,154.9701422,9.52,'11111222,11111222,11111222' 
TABS,ioos:station:wmo:42044:1,2016-07-03T03:30:00Z,26.1914,-97.0507,0.0,7.556255687,157.6778688,9.64,'11111222,11111222,11111222' 
TABS,ioos:station:wmo:42044:1,2016-07-03T04:00:00Z,26.1914,-97.0507,0.0,7.446717398,158.741787,9.14,'11111222,11111222,11111222' 
TABS,ioos:station:wmo:42044:1,2016-07-03T04:30:00Z,26.1914,-97.0507,0.0,6.782337355,164.9599944,8.07,'11111222,11111222,11111222' 
TABS,ioos:station:wmo:42044:1,2016-07-03T05:00:00Z,26.1914,-97.0507,0.0,6.573066256,165.3720363,7.9,'11111222,11111222,11111222' 
TABS,ioos:station:wmo:42044:1,2016-07-03T05:30:00Z,26.1914,-97.0507,0.0,6.534408925,163.6453461,7.92,'11111222,11111222,11111222' 
TABS,ioos:station:wmo:42044:1,2016-07-03T06:00:00Z,26.1914,-97.0507,0.0,6.453975519,166.2869707,7.77,'11111222,11111222,11111222' 
TABS,ioos:station:wmo:42044:1,2016-07-03T06:30:00Z,26.1914,-97.0507,0.0,6.762403419,163.6824296,7.95,'11111222,11111222,11111222' 
TABS,ioos:station:wmo:42044:1,2016-07-03T07:00:00Z,26.1914,-97.0507,0.0,6.398038762,162.4432217,7.6,'11111222,11111222,11111222' 
TABS,ioos:station:wmo:42044:1,2016-07-03T07:30:00Z,26.1914,-97.0507,0.0,6.663189927,162.0819577,7.91,'11111222,11111222,11111222' 
TABS,ioos:station:wmo:42044:1,2016-07-03T08:00:00Z,26.1914,-97.0507,0.0,6.269202501,163.7912234,7.69,'11111222,11111222,11111222' 
TABS,ioos:station:wmo:42044:1,2016-07-03T08:30:00Z,26.1914,-97.0507,0.0,5.896202167,167.661152,6.93,'11111222,11111222,11111222' 
TABS,ioos:station:wmo:42044:1,2016-07-03T09:00:00Z,26.1914,-97.0507,0.0,5.657782251,162.3018767,6.6,'11111222,11111222,11111222' 
TABS,ioos:station:wmo:42044:1,2016-07-03T09:30:00Z,26.1914,-97.0507,0.0,6.226435577,157.925448,7.36,'11111222,11111222,11111222' 
TABS,ioos:station:wmo:42044:1,2016-07-03T10:00:00Z,26.1914,-97.0507,0.0,6.73767022,164.4169602,8.19,'11111222,11111222,11111222' 
TABS,ioos:station:wmo:42044:1,2016-07-03T10:30:00Z,26.1914,-97.0507,0.0,6.806643813,162.7366139,8.2,'11111222,11111222,11111222' 
TABS,ioos:station:wmo:42044:1,2016-07-03T11:00:00Z,26.1914,-97.0507,0.0,7.340388273,160.7507296,8.71,'11111222,11111222,11111222' 
TABS,ioos:station:wmo:42044:1,2016-07-03T11:30:00Z,26.1914,-97.0507,0.0,7.406078585,161.4185186,8.69,'11111222,11111222,11111222' 
TABS,ioos:station:wmo:42044:1,2016-07-03T12:00:00Z,26.1914,-97.0507,0.0,7.140602215,161.9712901,8.64,'11111222,11111222,11111222' 
TABS,ioos:station:wmo:42044:1,2016-07-03T12:30:00Z,26.1914,-97.0507,0.0,7.039786929,160.8446428,8.31,'11111222,11111222,11111222' 
TABS,ioos:station:wmo:42044:1,2016-07-03T13:00:00Z,26.1914,-97.0507,0.0,7.181761622,159.1174001,8.34,'11111222,11111222,11111222' 
TABS,ioos:station:wmo:42044:1,2016-07-03T13:30:00Z,26.1914,-97.0507,0.0,6.818834211,163.5585482,8.07,'11111222,11111222,11111222' 
TABS,ioos:station:wmo:42044:1,2016-07-03T14:00:00Z,26.1914,-97.0507,0.0,5.842165694,171.6343439,7.13,'11111222,11111222,11111222' 
TABS,ioos:station:wmo:42044:1,2016-07-03T14:30:00Z,26.1914,-97.0507,0.0,5.859027223,163.2354389,7.05,'11111222,11111222,11111222' 
TABS,ioos:station:wmo:42044:1,2016-07-03T15:00:00Z,26.1914,-97.0507,0.0,6.889303303,164.8545397,8.12,'11111222,11111222,11111222' 
TABS,ioos:station:wmo:42044:1,2016-07-03T15:30:00Z,26.1914,-97.0507,0.0,7.436181816,166.1508734,8.68,'11111222,11111222,11111222' 
TABS,ioos:station:wmo:42044:1,2016-07-03T16:00:00Z,26.1914,-97.0507,0.0,7.153880066,162.4264477,8.47,'11111222,11111222,11111222' 
TABS,ioos:station:wmo:42044:1,2016-07-03T16:30:00Z,26.1914,-97.0507,0.0,6.928924881,163.3960491,8.22,'11111222,11111222,11111222' 
TABS,ioos:station:wmo:42044:1,2016-07-03T17:00:00Z,26.1914,-97.0507,0.0,6.931789091,163.3168394,8.25,'11111222,11111222,11111222' 
TABS,ioos:station:wmo:42044:1,2016-07-03T17:30:00Z,26.1914,-97.0507,0.0,5.923081968,165.3305357,7.13,'11111222,11111222,11111222' 
TABS,ioos:station:wmo:42044:1,2016-07-03T18:00:00Z,26.1914,-97.0507,0.0,6.219686487,164.0421982,7.41,'11111222,11111222,11111222' 
TABS,ioos:station:wmo:42044:1,2016-07-03T18:30:00Z,26.1914,-97.0507,0.0,6.110981918,167.2375321,7.2,'11111222,11111222,11111222' 
TABS,ioos:station:wmo:42044:1,2016-07-03T19:00:00Z,26.1914,-97.0507,0.0,6.911222757,164.8178376,8.14,'11111222,11111222,11111222' 
TABS,ioos:station:wmo:42044:1,2016-07-03T19:30:00Z,26.1914,-97.0507,0.0,6.331484818,164.8006849,7.46,'11111222,11111222,11111222' 
TABS,ioos:station:wmo:42044:1,2016-07-03T20:00:00Z,26.1914,-97.0507,0.0,6.70402864,161.5653047,8.05,'11111222,11111222,11111222' 
TABS,ioos:station:wmo:42044:1,2016-07-03T20:30:00Z,26.1914,-97.0507,0.0,5.892113373,158.1807947,6.97,'11111222,11111222,11111222' 
TABS,ioos:station:wmo:42044:1,2016-07-03T21:00:00Z,26.1914,-97.0507,0.0,5.510943658,156.9245381,6.53,'11111222,11111222,11111222' 
TABS,ioos:station:wmo:42044:1,2016-07-03T21:30:00Z,26.1914,-97.0507,0.0,6.719412177,159.1647733,8.21,'11111222,11111222,11111222' 
TABS,ioos:station:wmo:42044:1,2016-07-03T22:00:00Z,26.1914,-97.0507,0.0,6.014224805,155.4380476,7.17,'11111222,11111222,11111222' 
TABS,ioos:station:wmo:42044:1,2016-07-03T22:30:00Z,26.1914,-97.0507,0.0,6.524844826,155.5563128,7.53,'11111222,11111222,11111222' 
TABS,ioos:station:wmo:42044:1,2016-07-03T23:00:00Z,26.1914,-97.0507,0.0,6.184698861,155.5486458,7.39,'11111222,11111222,11111222' 
TABS,ioos:station:wmo:42044:1,2016-07-03T23:30:00Z,26.1914,-97.0507,0.0,5.762126344,158.198852,6.75,'11111222,11111222,11111222' 
TABS,ioos:station:wmo:42044:1,2016-07-04T00:00:00Z,26.1914,-97.0507,0.0,6.068541835,158.3391103,7.02,'11111222,11111222,11111222' 
TABS,ioos:station:wmo:42044:1,2016-07-04T00:30:00Z,26.1914,-97.0507,0.0,6.597893603,157.8279593,7.75,'11111222,11111222,11111222' 
TABS,ioos:station:wmo:42044:1,2016-07-04T01:00:00Z,26.1914,-97.0507,0.0,6.82900432,153.6603505,7.96,'11111222,11111222,11111222' 
TABS,ioos:station:wmo:42044:1,2016-07-04T01:30:00Z,26.1914,-97.0507,0.0,5.890415945,156.6994975,7.1,'11111222,11111222,11111222' 
TABS,ioos:station:wmo:42044:1,2016-07-04T02:00:00Z,26.1914,-97.0507,0.0,5.841523774,159.4556931,6.94,'11111222,11111222,11111222' 
TABS,ioos:station:wmo:42044:1,2016-07-04T02:30:00Z,26.1914,-97.0507,0.0,6.307963221,156.8493808,7.36,'11111222,11111222,11111222' 
TABS,ioos:station:wmo:42044:1,2016-07-04T03:00:00Z,26.1914,-97.0507,0.0,5.152164594,159.3140553,6.06,'11111222,11111222,11111222' 
TABS,ioos:station:wmo:42044:1,2016-07-04T03:30:00Z,26.1914,-97.0507,0.0,6.855545201,156.9882328,8.04,'11111222,11111222,11111222' 
TABS,ioos:station:wmo:42044:1,2016-07-04T04:00:00Z,26.1914,-97.0507,0.0,6.476372441,161.7331626,7.67,'11111222,11111222,11111222' 
TABS,ioos:station:wmo:42044:1,2016-07-04T04:30:00Z,26.1914,-97.0507,0.0,5.589579591,168.127418,6.66,'11111222,11111222,11111222' 
TABS,ioos:station:wmo:42044:1,2016-07-04T05:00:00Z,26.1914,-97.0507,0.0,5.816674308,171.9955003,6.7,'11111222,11111222,11111222' 
TABS,ioos:station:wmo:42044:1,2016-07-04T05:30:00Z,26.1914,-97.0507,0.0,5.540992691,172.2210915,6.54,'11111222,11111222,11111222' 
TABS,ioos:station:wmo:42044:1,2016-07-04T06:00:00Z,26.1914,-97.0507,0.0,5.5403249,170.2318831,6.91,'11111222,11111222,11111222' 
TABS,ioos:station:wmo:42044:1,2016-07-04T06:30:00Z,26.1914,-97.0507,0.0,5.77894454,171.1410002,6.7,'11111222,11111222,11111222' 
TABS,ioos:station:wmo:42044:1,2016-07-04T07:00:00Z,26.1914,-97.0507,0.0,5.402082932,178.4090739,6.24,'11111222,11111222,11111222' 
TABS,ioos:station:wmo:42044:1,2016-07-04T07:30:00Z,26.1914,-97.0507,0.0,5.072090299,176.0433754,5.96,'11111222,11111222,11111222' 
TABS,ioos:station:wmo:42044:1,2016-07-04T08:00:00Z,26.1914,-97.0507,0.0,4.770083857,176.2740335,5.56,'11111222,11111222,11111222' 
TABS,ioos:station:wmo:42044:1,2016-07-04T08:30:00Z,26.1914,-97.0507,0.0,5.07276059,174.5705996,6.02,'11111222,11111222,11111222' 
TABS,ioos:station:wmo:42044:1,2016-07-04T09:00:00Z,26.1914,-97.0507,0.0,4.94240832,175.9393815,5.87,'11111222,11111222,11111222' 
TABS,ioos:station:wmo:42044:1,2016-07-04T09:30:00Z,26.1914,-97.0507,0.0,4.682574078,172.2681273,5.81,'11111222,11111222,11111222' 
TABS,ioos:station:wmo:42044:1,2016-07-04T10:00:00Z,26.1914,-97.0507,0.0,4.774191031,177.5992836,5.58,'11111222,11111222,11111222' 
TABS,ioos:station:wmo:42044:1,2016-07-04T10:30:00Z,26.1914,-97.0507,0.0,5.363282577,172.7162038,6.42,'11111222,11111222,11111222' 
TABS,ioos:station:wmo:42044:1,2016-07-04T11:00:00Z,26.1914,-97.0507,0.0,6.38787132,168.0746242,7.44,'11111222,11111222,11111222' 
TABS,ioos:station:wmo:42044:1,2016-07-04T11:30:00Z,26.1914,-97.0507,0.0,6.378165881,171.6160461,7.55,'11111222,11111222,11111222' 
TABS,ioos:station:wmo:42044:1,2016-07-04T12:00:00Z,26.1914,-97.0507,0.0,6.875354536,170.9626192,7.96,'11111222,11111222,11111222' 
TABS,ioos:station:wmo:42044:1,2016-07-04T12:30:00Z,26.1914,-97.0507,0.0,6.742647848,165.572417,8.06,'11111222,11111222,11111222' 
TABS,ioos:station:wmo:42044:1,2016-07-04T13:00:00Z,26.1914,-97.0507,0.0,7.300499983,165.5642692,8.33,'11111222,11111222,11111222' 
TABS,ioos:station:wmo:42044:1,2016-07-04T13:30:00Z,26.1914,-97.0507,0.0,6.389945227,167.9868942,7.55,'11111222,11111222,11111222' 
TABS,ioos:station:wmo:42044:1,2016-07-04T14:00:00Z,26.1914,-97.0507,0.0,5.426647215,172.4823325,6.29,'11111222,11111222,11111222' 
TABS,ioos:station:wmo:42044:1,2016-07-04T14:30:00Z,26.1914,-97.0507,0.0,6.136684773,173.7322072,7.23,'11111222,11111222,11111222' 
TABS,ioos:station:wmo:42044:1,2016-07-04T15:00:00Z,26.1914,-97.0507,0.0,6.91035455,175.6015154,7.81,'11111222,11111222,11111222' 
TABS,ioos:station:wmo:42044:1,2016-07-04T15:30:00Z,26.1914,-97.0507,0.0,7.321666477,173.8847212,8.54,'11111222,11111222,11111222' 
TABS,ioos:station:wmo:42044:1,2016-07-04T16:00:00Z,26.1914,-97.0507,0.0,7.453059774,173.8383125,8.99,'11111222,11111222,11111222' 
TABS,ioos:station:wmo:42044:1,2016-07-04T16:30:00Z,26.1914,-97.0507,0.0,6.567411971,173.8816231,7.67,'11111222,11111222,11111222' 
TABS,ioos:station:wmo:42044:1,2016-07-04T17:00:00Z,26.1914,-97.0507,0.0,6.310261484,172.075579,7.81,'11111222,11111222,11111222' 
TABS,ioos:station:wmo:42044:1,2016-07-04T17:30:00Z,26.1914,-97.0507,0.0,5.594461547,173.6374139,6.45,'11111222,11111222,11111222' 
TABS,ioos:station:wmo:42044:1,2016-07-04T18:00:00Z,26.1914,-97.0507,0.0,5.686554317,171.9128744,6.89,'11111222,11111222,11111222' 
TABS,ioos:station:wmo:42044:1,2016-07-04T18:30:00Z,26.1914,-97.0507,0.0,6.224475882,171.1280982,7.32,'11111222,11111222,11111222' 